Simultaneous Nadir Overpasses (SNOs) Predictions

Prediction of SNOs between NOAA-15 and METOP-C Satellite Orbit:

Table of predicted SNOs for the next 14.0 days since TLE Epoch: 4/2/2022
Index Date (NOAA-15) Time (NOAA-15) Lat,Lon (NOAA-15) SZA (NOAA-15 ) Date (METOP-C) Time (METOP-C) Lat,Lon (METOP-C) SZA (METOP-C ) Distance(km) Time Diff (sec)
1 04/06/2022 13:23:24 -81.05,-162.58 103.66 04/06/2022 13:22:15 -81.06,-162.57 103.68 1.29 69
2 04/06/2022 14:13:59 81.05, 4.62 76.32 04/06/2022 14:12:56 81.06, 4.77 76.31 2.60 63
3 04/06/2022 15:04:27 -81.06, 171.77 103.71 04/06/2022 15:03:37 -81.05, 171.93 103.73 3.05 50
4 04/06/2022 15:55:01 81.05, -20.66 76.29 04/06/2022 15:54:18 81.05, -20.73 76.27 1.16 43
5 04/06/2022 16:45:28 -81.05, 146.86 103.72 04/06/2022 16:44:58 -81.06, 146.80 103.73 1.62 30
6 04/06/2022 17:36:03 81.06, -45.95 76.26 04/06/2022 17:35:39 81.06, -45.85 76.27 1.70 24
7 04/06/2022 18:26:31 -81.07, 121.21 103.77 04/06/2022 18:26:20 -81.05, 121.31 103.77 2.11 11
8 04/06/2022 19:17:05 81.06, -71.23 76.24 04/06/2022 19:17:01 81.05, -71.35 76.22 2.08 4
9 04/06/2022 20:07:32 -81.05, 96.30 103.77 04/06/2022 20:07:41 -81.06, 96.18 103.77 2.43 9
10 04/06/2022 20:58:07 81.06, -96.52 76.21 04/06/2022 20:58:22 81.06, -96.48 76.22 0.89 15
11 04/06/2022 21:48:35 -81.07, 70.65 103.82 04/06/2022 21:49:03 -81.06, 70.68 103.82 1.38 28
12 04/06/2022 22:39:09 81.06,-121.80 76.18 04/06/2022 22:39:44 81.06,-121.97 76.18 3.01 35
13 04/06/2022 23:29:37 -81.07, 45.37 103.85 04/06/2022 23:30:24 -81.07, 45.56 103.82 3.29 47
14 04/07/2022 00:20:11 81.06,-147.09 76.15 04/07/2022 00:21:05 81.07,-147.10 76.18 0.62 54
15 04/07/2022 01:10:39 -81.07, 20.09 103.88 04/07/2022 01:11:46 -81.06, 20.06 103.86 1.30 67



Historial Predications of SNOs between NOAA-15 and METOP-C
